Home > Weather > Sorocaba > Past weeks

Flag for Brazil Weather for the Past 2 Weeks in Sorocaba, São Paulo, Brazil

Now
82 °F

Clear.


Feels Like: 85 °F
Forecast: 71 / 94 °F
Wind: 7 mph from South

Location: Campinas Aeroporto

Current Time: Feb 13, 2016 at 10:27:15 PM

Latest Report: Feb 13, 2016 at 9:00 PM


Visibility: 10 mi

Pressure: 29.92 "Hg (27.94 "Hg at 602m altitude)

Humidity: 62%

Dew point: 68 °F

Location of SorocabaLocation

Historic Weather in Sorocaba — Graph

°F

Sorocaba Temperature Yesterday

Maximum temperature yesterday: 88 °F (at 4:00 PM)
Minimum temperature yesterday: 66 °F (at 6:00 AM)
Average temperature yesterday: 76 °F

High & Low Weather Summary for the Past Weeks

 TemperatureHumidityPressure
High95 °F (Feb 2, 4:00 PM)100% (Jan 30, 3:00 AM)30.15 "Hg (Jan 30, 3:00 AM)
Low66 °F (Feb 12, 6:00 AM)24% (Jan 31, 5:00 PM)29.89 "Hg (Feb 3, 6:00 PM)
Average78 °F69%30.04 "Hg
* Reported Jan 29 9:00 PM — Feb 13 9:00 PM, Sorocaba, Weather by CustomWeather, © 2016

Note: Actual official high and low records may vary slightly from our data, if they occured in-between our weather recording intervals... More about our weather records

Advertising

Sorocaba Weather History for the Previous 24 Hours

 ConditionsComfort  
Time TempWeatherWind HumidityBarometerVisibility
9:00 PM
Sat, Feb 13
82 °FClear.7 mph62%29.92 "Hg10 mi
8:00 PM84 °FClear.8 mph51%29.89 "Hg10 mi
7:00 PM88 °FPassing clouds.7 mph43%29.89 "HgN/A
6:00 PM90 °FPassing clouds.7 mph41%29.89 "HgN/A
5:00 PM88 °FPassing clouds.8 mph43%29.92 "HgN/A
4:00 PM90 °FScattered clouds.10 mph41%29.95 "HgN/A
3:00 PM88 °FScattered clouds.9 mph43%29.95 "HgN/A
2:00 PM88 °FScattered clouds.7 mph43%29.98 "HgN/A
1:00 PM84 °FScattered clouds.9 mph58%29.98 "HgN/A
12:00 PM82 °FPassing clouds.7 mph58%29.98 "HgN/A
11:00 AM81 °FPassing clouds.7 mph58%29.98 "HgN/A
10:00 AM79 °FSunny.7 mph61%29.98 "Hg10 mi
9:00 AM73 °FSunny.6 mph74%29.98 "Hg10 mi
8:00 AM68 °FSunny.10 mph83%29.95 "Hg10 mi
7:00 AM66 °FPassing clouds.10 mph88%29.95 "HgN/A
6:00 AM66 °FClear.10 mph88%29.95 "Hg10 mi
5:00 AM66 °FClear.9 mph88%29.92 "Hg10 mi
4:00 AM66 °FClear.10 mph83%29.92 "Hg10 mi
3:00 AM68 °FClear.9 mph78%29.92 "Hg10 mi
2:00 AM68 °FClear.14 mph83%29.95 "Hg10 mi
1:00 AM70 °FClear.14 mph78%29.98 "Hg10 mi
12:00 AM70 °FClear.15 mph78%29.98 "Hg10 mi
11:00 PM
Fri, Feb 12
70 °FClear.14 mph78%29.98 "Hg10 mi
10:00 PM72 °FClear.18 mph73%29.95 "Hg10 mi
Weather by CustomWeather, © 2016

See weather overviewHow to use our weather pages